Location: Peterborough
(44.3091°N, 78.3197°W)
Time: 03:13:36
(UTC-04:00)

Tiros 1 - Pass Details

Date: 08 April 2023
Orbit: 627 x 661 km, 48.4° (Epoch: 09 June)

Event Time Altitude Azimuth Distance (km) Brightness Sun altitude
Rises 01:45:12 0° 239° (WSW) 2,947 - -38.1°
Reaches altitude 10° 01:47:31 10° 238° (WSW) 2,045 - -38.1°
Maximum altitude 01:52:14 76° 154° (SSE) 675 - -37.9°
Drops below altitude 10° 01:57:01 10° 69° (ENE) 2,071 - -37.7°
Exits shadow 01:57:54 - 68° (ENE) 2,414 10.4 -37.7°
Sets 01:59:22 0° 68° (ENE) 2,988 11.0 -37.6°
